Location: Makanda
(37.6176°N, 89.2090°W)
Time: 05:28:25
(UTC+00:00)

Atlas Centaur 2 - Pass Details

Date: 23 September 2019
Orbit: 459 x 1311 km, 30.4° (Epoch: 17 October)

Event Time Altitude Azimuth Distance (km) Brightness Sun altitude
Exits shadow 10:53:18 10° 236° (SW) 2,700 4.3 -11.1°
Maximum altitude 10:56:41 15° 205° (SSW) 2,531 4.4 -10.4°
Drops below altitude 10° 11:00:32 10° 173° (S) 3,028 5.1 -9.7°
Sets 11:05:03 0° 153° (SSE) 4,132 6.1 -8.8°
